Location: Beaurecueil
(43.5122°N, 5.5450°E)
Time: 13:47:38
(UTC+00:00)

Cosmos 1833 Rocket - Pass Details

Date: 18 September 2020
Orbit: 831 x 841 km, 71.0° (Epoch: 30 October)

Event Time Altitude Azimuth Distance (km) Brightness Sun altitude
Rises 20:00:46 0° 343° (NNW) 3,405 6.5 -24.9°
Reaches altitude 10° 20:03:41 10° 357° (N) 2,467 5.5 -25.4°
Enters shadow 20:07:41 24° 41° (NE) 1,671 4.1 -26.0°
